FW8702 Weather Reports


time (UTC)temp
F
wind
direction
speed
knots
gust
knots
rain 1hr
in
rain 24hr
in
rain mn
in
humidity
%
barometer
mb
20260906083020 79 267 0.0 1.7 0.00 0.00 0.00 60 1024.4
20260906081537 77 280 2.6 4.3 0.00 0.00 0.00 62 1024.4
20260906080040 78 196 0.0 2.6 0.00 0.00 0.00 60 1024.2
20260906074601 77 273 0.9 2.6 0.00 0.00 0.00 60 1024.1
20260906073101 77 289 0.9 2.6 0.00 0.00 0.00 62 1024.0
20260906071513 75 269 0.9 2.6 0.00 0.00 0.00 65 1023.9
20260906070057 74 8 0.0 1.7 0.00 0.00 0.00 68 1024.0
20260906064530 73 287 0.0 1.7 0.00 0.00 0.00 71 1023.7
20260906063002 70 344 0.0 2.6 0.00 0.00 0.00 75 1023.7
20260906061543 68 326 0.0 2.6 0.00 0.00 0.00 78 1023.6
20260906060047 68 295 0.0 1.7 0.00 0.00 0.00 75 1023.5
20260906054517 67 282 0.0 1.7 0.00 0.00 0.00 76 1023.1
20260906053013 68 281 0.0 0.9 0.00 0.00 0.00 74 1023.0
20260906051503 68 332 2.6 3.5 0.00 0.00 0.00 76 1022.8
20260906050048 65 276 0.0 1.7 0.00 0.00 0.00 80 1022.6
20260906044512 65 276 0.9 3.5 0.00 0.00 0.00 79 1022.4
20260906043016 65 279 1.7 2.6 0.00 0.00 0.00 78 1022.5
20260906041515 65 266 0.9 2.6 0.00 0.00 0.00 77 1022.3
20260906040032 66 314 0.0 2.6 0.00 0.00 0.00 75 1022.3
20260906034528 67 58 0.0 1.7 0.00 0.00 0.00 74 1022.3
20260906033038 68 285 0.0 1.7 0.00 0.00 0.00 71 1022.2
20260906031526 69 335 0.0 1.7 0.00 0.00 0.00 69 1022.0
20260906030045 68 266 0.9 2.6 0.00 0.00 0.00 71 1021.8
20260906024530 66 271 0.0 1.7 0.00 0.00 0.00 76 1021.7
20260906023004 66 277 0.0 2.6 0.00 0.00 0.00 78 1021.6
20260906021544 66 339 0.0 0.9 0.00 0.00 0.00 78 1021.6
20260906020011 67 272 0.0 2.6 0.00 0.00 0.00 75 1021.4
20260906014604 69 285 0.0 1.7 0.00 0.00 0.00 72 1021.4
20260906013051 71 342 0.9 2.6 0.00 0.00 0.00 69 1021.3
20260906011546 71 88 1.7 3.5 0.00 0.00 0.00 68 1021.2
20260906010007 72 55 0.0 4.3 0.00 0.00 0.00 69 1021.0
20260906004537 72 252 0.9 2.6 0.00 0.00 0.00 69 1020.9
20260906003002 72 221 1.7 6.1 0.00 0.00 0.00 71 1020.8
20260906001501 70 342 0.0 3.5 0.00 0.00 0.00 73 1020.8
20260905234540 72 22 0.0 2.6 0.00 0.00 0.00 73 1020.8
20260905233026 72 233 0.9 3.5 0.00 0.00 0.00 72 1020.9
20260905231501 74 308 0.9 7.0 0.00 0.00 0.00 70 1021.0
20260905230100 72 236 2.6 3.5 0.00 0.00 0.00 73 1020.9
20260905224557 71 230 0.9 5.2 0.00 0.00 0.00 76 1020.8
20260905223009 70 283 0.9 5.2 0.00 0.00 0.00 79 1020.8
20260905221540 70 288 0.9 2.6 0.00 0.00 0.00 80 1020.5
20260905220025 70 285 0.0 1.7 0.00 0.00 0.00 79 1020.4
20260905214555 71 85 0.0 1.7 0.00 0.00 0.00 78 1020.4
20260905213033 72 283 0.0 3.5 0.00 0.00 0.00 77 1020.3
20260905211603 72 283 0.9 2.6 0.00 0.00 0.00 78 1020.1
20260905210003 72 337 0.9 2.6 0.00 0.00 0.00 79 1020.0
20260905204539 73 337 1.7 3.5 0.00 0.00 0.00 79 1019.9
20260905203014 72 8 0.0 1.7 0.00 0.00 0.00 79 1019.9
20260905201522 72 354 0.0 5.2 0.00 0.00 0.00 80 1019.6
20260905200016 72 324 0.0 1.7 0.00 0.00 0.00 80 1019.6
20260905194537 72 304 0.0 0.9 0.00 0.00 0.00 80 1019.4
20260905193007 72 320 0.0 2.6 0.00 0.00 0.00 80 1019.2
20260905191551 73 283 0.0 0.0 0.00 0.00 0.00 81 1019.0
20260905190009 73 283 0.0 3.5 0.00 0.00 0.00 80 1018.7
20260905184556 75 279 0.0 0.0 0.00 0.00 0.00 79 1018.7
20260905183054 75 279 0.0 0.9 0.00 0.00 0.00 79 1018.3
20260905181549 77 279 0.0 1.7 0.00 0.00 0.00 78 1018.0
20260905180057 78 3 0.0 1.7 0.00 0.00 0.00 76 1017.9
20260905174604 79 284 0.0 0.9 0.00 0.00 0.00 74 1017.7
20260905173016 80 275 0.0 3.5 0.00 0.00 0.00 75 1017.5
20260905171546 82 71 0.9 1.7 0.00 0.00 0.00 72 1017.4
20260905170038 83 273 0.0 0.0 0.00 0.00 0.00 72 1017.4
20260905164525 84 273 0.0 1.7 0.00 0.00 0.00 67 1017.3
20260905163119 85 284 0.0 1.7 0.00 0.00 0.00 66 1017.3
20260905161602 87 46 0.0 0.0 0.00 0.00 0.00 59 1017.3
20260905160046 87 46 0.0 0.9 0.00 0.00 0.00 56 1017.3
20260905154548 87 86 0.0 1.7 0.00 0.00 0.00 52 1017.3
20260905153020 87 75 0.0 2.6 0.00 0.00 0.00 55 1017.3
20260905151539 87 100 0.9 1.7 0.00 0.00 0.00 52 1017.4
20260905150013 87 82 0.9 2.6 0.00 0.00 0.00 53 1017.4
20260905144550 87 85 0.9 2.6 0.00 0.00 0.00 54 1017.5
20260905143044 88 108 1.7 3.5 0.00 0.00 0.00 52 1017.5
20260905141505 88 223 0.9 2.6 0.00 0.00 0.00 53 1017.4
20260905140045 89 113 0.9 3.5 0.00 0.00 0.00 52 1017.4
20260905134557 87 269 0.0 5.2 0.00 0.00 0.00 57 1017.6
20260905133001 88 232 2.6 4.3 0.00 0.00 0.00 54 1017.7
20260905131533 87 217 0.0 4.3 0.00 0.00 0.00 54 1017.9
20260905130041 88 188 1.7 4.3 0.00 0.00 0.00 54 1018.0
20260905124604 87 234 0.0 3.5 0.00 0.00 0.00 54 1018.1
20260905123003 87 227 1.7 3.5 0.00 0.00 0.00 53 1018.2
20260905121605 86 279 0.9 5.2 0.00 0.00 0.00 55 1018.3
20260905120042 86 83 0.0 3.5 0.00 0.00 0.00 54 1018.4
20260905114546 85 280 0.0 2.6 0.00 0.00 0.00 56 1018.4
20260905113015 85 298 0.9 3.5 0.00 0.00 0.00 56 1018.7
20260905111605 84 242 1.7 4.3 0.00 0.00 0.00 57 1018.7
20260905110015 84 252 1.7 3.5 0.00 0.00 0.00 60 1018.6
20260905104524 84 233 0.0 1.7 0.00 0.00 0.00 60 1018.5
20260905103013 81 226 0.9 4.3 0.00 0.00 0.00 60 1018.7
20260905101557 81 248 1.7 3.5 0.00 0.00 0.00 61 1018.7
20260905100031 79 277 1.7 6.1 0.00 0.00 0.00 63 1018.6
20260905094600 80 277 1.7 7.0 0.00 0.00 0.00 64 1018.9
20260905093106 80 245 1.7 4.3 0.00 0.00 0.00 66 1018.7
20260905091524 82 200 0.0 1.7 0.00 0.00 0.00 62 1018.7
20260905090036 80 84 0.9 3.5 0.00 0.00 0.00 62 1018.7
20260905084512 80 208 1.7 3.5 0.00 0.00 0.00 61 1018.7